If you wish to contribute or participate in the discussions about articles you are invited to join SKYbrary as a registered user

 Actions

Chacalluta Airport

From SKYbrary Wiki

SCAR
Airport
ICAO: SCAR – IATA: ARI
Summary
Name Chacalluta Airport
Region South America and Caribbean
Territory Chile CL.gif
Location Chacalluta, Arica y Parinacota
Serving Arica
Elevation 50.902 m
167 ft
167 ft50.902 m
Type medium airport
Coordinates 18° 20' 54.71" S, 70° 20' 19.47" W
Runways
Designator Length Width Surface ROPS
2/20 2170 m7,119.423 ft
45 m147.638 ft
ASP /


METAR
Observation SCAR 210300Z 20001KT 9999 BKN100 21/14 Q1016
Station Arica
Date/Time 21 November 2019 03:00:00
Wind direction 200°
Wind speed 01 kts
Lowest cloud amount broken clouds
Temperature 21°C
Dew point 14°C
Humidity 64%
QNH 1016 hPa
Weather condition n/a

Airport serving the city of Arica, capital of the Arica Province in the northern Arica y Parinacota Region of Chile. It is located 18.5 km9.989 nm
18,500 m
60,695.538 ft
northeast of the city, close to the Peruvian border.

Climatology

Mild desert climate (Köppen climate classification BWn)

Maps

Terrain

Loading map...

Airport Layout

Loading map...


Accidents & Serious Incidents at or in vicinity of SCAR

None on SKYbrary